Time,TemperatureF,DewpointF,PressureIn,WindDirection,WindDirectionDegrees,WindSpeedMPH,WindSpeedGustMPH,Humidity,HourlyPrecipIn,Conditions,Clouds,dailyrainin,SolarRadiationWatts/m^2,SoftwareType,DateUTC
2013-09-02 00:04:00,71.0,70.0,-100.00,SSE,157,5.0,7.0,97,0.00,,,0.03,1.000000,,2013-09-02 04:04:00,
2013-09-02 00:14:00,71.0,70.0,-100.00,SSE,157,5.0,7.0,97,0.00,,,0.03,1.000000,,2013-09-02 04:14:00,
2013-09-02 00:54:00,71.0,70.0,-100.00,SSE,163,2.0,6.0,97,0.00,,,0.03,1.000000,,2013-09-02 04:54:00,
2013-09-02 01:04:00,71.0,70.0,-100.00,SSE,163,2.0,6.0,97,0.00,,,0.03,1.000000,,2013-09-02 05:04:00,
2013-09-02 01:13:00,71.0,70.0,-100.00,SSE,163,2.0,6.0,97,0.00,,,0.03,1.000000,,2013-09-02 05:13:00,
2013-09-02 01:23:00,71.0,70.0,-100.00,SSE,163,2.0,6.0,97,0.00,,,0.03,1.000000,,2013-09-02 05:23:00,
2013-09-02 01:52:00,71.0,70.0,-100.00,ESE,117,2.0,5.0,98,0.00,,,0.03,1.000000,,2013-09-02 05:52:00,
2013-09-02 02:03:00,71.0,70.0,-100.00,ESE,117,2.0,5.0,98,0.00,,,0.03,1.000000,,2013-09-02 06:03:00,
2013-09-02 02:12:00,71.0,70.0,-100.00,ESE,117,2.0,5.0,98,0.00,,,0.03,1.000000,,2013-09-02 06:12:00,
2013-09-02 02:22:00,71.0,70.0,-100.00,ESE,117,2.0,5.0,98,0.00,,,0.03,1.000000,,2013-09-02 06:22:00,
2013-09-02 02:52:00,70.0,69.0,-100.00,ESE,114,0.0,3.0,98,0.00,,,0.03,1.000000,,2013-09-02 06:52:00,
2013-09-02 03:01:00,70.0,69.0,-100.00,ESE,114,0.0,3.0,98,0.00,,,0.03,1.000000,,2013-09-02 07:01:00,
2013-09-02 03:11:00,70.0,69.0,-100.00,ESE,114,0.0,3.0,98,0.00,,,0.03,1.000000,,2013-09-02 07:11:00,
2013-09-02 03:21:00,70.0,69.0,-100.00,ESE,114,0.0,3.0,98,0.00,,,0.03,1.000000,,2013-09-02 07:21:00,
2013-09-02 03:52:00,70.0,69.0,-100.00,ESE,106,2.0,3.0,98,0.00,,,0.03,1.000000,,2013-09-02 07:52:00,
2013-09-02 04:02:00,70.0,69.0,-100.00,ESE,106,2.0,3.0,98,0.00,,,0.03,1.000000,,2013-09-02 08:02:00,
2013-09-02 04:11:00,70.0,69.0,-100.00,ESE,106,2.0,3.0,98,0.00,,,0.03,1.000000,,2013-09-02 08:11:00,
2013-09-02 04:22:00,70.0,69.0,-100.00,ESE,106,2.0,3.0,98,0.00,,,0.03,1.000000,,2013-09-02 08:22:00,
2013-09-02 04:52:00,70.0,69.0,-100.00,SE,132,1.0,3.0,98,0.01,,,0.04,1.000000,,2013-09-02 08:52:00,
2013-09-02 05:01:00,70.0,69.0,-100.00,SE,132,1.0,3.0,98,0.01,,,0.04,1.000000,,2013-09-02 09:01:00,
2013-09-02 05:12:00,70.0,69.0,-100.00,SE,132,1.0,3.0,98,0.01,,,0.04,1.000000,,2013-09-02 09:12:00,
2013-09-02 05:22:00,70.0,69.0,-100.00,SE,132,1.0,3.0,98,0.01,,,0.04,1.000000,,2013-09-02 09:22:00,
2013-09-02 05:53:00,69.0,68.0,-100.00,North,353,3.0,26.0,98,0.53,,,0.55,1.000000,,2013-09-02 09:53:00,
2013-09-02 06:03:00,69.0,68.0,-100.00,North,353,3.0,26.0,98,0.53,,,0.55,1.000000,,2013-09-02 10:03:00,
2013-09-02 06:13:00,69.0,68.0,-100.00,North,353,3.0,26.0,98,0.53,,,0.55,1.000000,,2013-09-02 10:13:00,
2013-09-02 06:23:00,69.0,68.0,-100.00,North,353,3.0,26.0,98,0.53,,,0.55,1.000000,,2013-09-02 10:23:00,
2013-09-02 06:53:00,69.0,68.0,-100.00,SSW,199,2.0,5.0,98,0.00,,,0.54,1.000000,,2013-09-02 10:53:00,
2013-09-02 07:03:00,69.0,68.0,-100.00,SSW,199,2.0,5.0,98,0.00,,,0.54,1.000000,,2013-09-02 11:03:00,
2013-09-02 07:12:00,69.0,68.0,-100.00,SSW,199,2.0,5.0,98,0.00,,,0.54,1.000000,,2013-09-02 11:12:00,
2013-09-02 07:22:00,69.0,68.0,-100.00,SSW,199,2.0,5.0,98,0.00,,,0.54,1.000000,,2013-09-02 11:22:00,
2013-09-02 07:52:00,71.0,70.0,-100.00,ESE,115,2.0,4.0,97,0.00,,,0.54,32.000000,,2013-09-02 11:52:00,
2013-09-02 08:02:00,71.0,70.0,-100.00,ESE,115,2.0,4.0,97,0.00,,,0.54,32.000000,,2013-09-02 12:02:00,
2013-09-02 08:12:00,71.0,70.0,-100.00,ESE,115,2.0,4.0,97,0.00,,,0.54,32.000000,,2013-09-02 12:12:00,
2013-09-02 08:21:00,71.0,70.0,-100.00,ESE,115,2.0,4.0,97,0.00,,,0.54,32.000000,,2013-09-02 12:21:00,
2013-09-02 08:52:00,71.0,70.0,-100.00,ESE,113,3.0,6.0,98,0.00,,,0.54,44.000000,,2013-09-02 12:52:00,
2013-09-02 09:02:00,71.0,70.0,-100.00,ESE,113,3.0,6.0,98,0.00,,,0.54,44.000000,,2013-09-02 13:02:00,
2013-09-02 09:11:00,71.0,70.0,-100.00,ESE,113,3.0,6.0,98,0.00,,,0.54,44.000000,,2013-09-02 13:11:00,
2013-09-02 09:22:00,71.0,70.0,-100.00,ESE,113,3.0,6.0,98,0.00,,,0.54,44.000000,,2013-09-02 13:22:00,
2013-09-02 09:52:00,72.0,71.0,-100.00,SSE,150,5.0,8.0,97,0.00,,,0.54,99.000000,,2013-09-02 13:52:00,
2013-09-02 10:02:00,72.0,71.0,-100.00,SSE,150,5.0,8.0,97,0.00,,,0.54,99.000000,,2013-09-02 14:02:00,
2013-09-02 10:11:00,72.0,71.0,-100.00,SSE,150,5.0,8.0,97,0.00,,,0.54,99.000000,,2013-09-02 14:11:00,
2013-09-02 10:22:00,72.0,71.0,-100.00,SSE,150,5.0,8.0,97,0.00,,,0.54,99.000000,,2013-09-02 14:22:00,
2013-09-02 10:52:00,73.0,72.0,-100.00,SSE,155,7.0,11.0,97,0.00,,,0.54,174.000000,,2013-09-02 14:52:00,
2013-09-02 11:02:00,73.0,72.0,-100.00,SSE,155,7.0,11.0,97,0.00,,,0.54,174.000000,,2013-09-02 15:02:00,
2013-09-02 11:12:00,73.0,72.0,-100.00,SSE,155,7.0,11.0,97,0.00,,,0.54,174.000000,,2013-09-02 15:12:00,
2013-09-02 11:23:00,73.0,72.0,-100.00,SSE,155,7.0,11.0,97,0.00,,,0.54,174.000000,,2013-09-02 15:23:00,
2013-09-02 11:55:00,72.0,71.0,-100.00,SSE,167,5.0,11.0,96,0.00,,,0.54,135.000000,,2013-09-02 15:55:00,
2013-09-02 12:04:00,72.0,71.0,-100.00,SSE,167,5.0,11.0,96,0.00,,,0.54,135.000000,,2013-09-02 16:04:00,
2013-09-02 12:14:00,72.0,71.0,-100.00,SSE,167,5.0,11.0,96,0.00,,,0.54,135.000000,,2013-09-02 16:14:00,
2013-09-02 12:24:00,72.0,71.0,-100.00,SSE,167,5.0,11.0,96,0.00,,,0.54,135.000000,,2013-09-02 16:24:00,
2013-09-02 12:53:00,73.0,71.0,-100.00,SSE,149,7.0,11.0,94,0.00,,,0.54,208.000000,,2013-09-02 16:53:00,
2013-09-02 13:03:00,73.0,71.0,-100.00,SSE,149,7.0,11.0,94,0.00,,,0.54,208.000000,,2013-09-02 17:03:00,
2013-09-02 13:13:00,73.0,71.0,-100.00,SSE,149,7.0,11.0,94,0.00,,,0.54,208.000000,,2013-09-02 17:13:00,
2013-09-02 13:23:00,73.0,71.0,-100.00,SSE,149,7.0,11.0,94,0.00,,,0.54,208.000000,,2013-09-02 17:23:00,
2013-09-02 13:52:00,72.0,70.0,-100.00,SSE,165,7.0,11.0,95,0.00,,,0.54,110.000000,,2013-09-02 17:52:00,
2013-09-02 14:02:00,72.0,70.0,-100.00,SSE,165,7.0,11.0,95,0.00,,,0.54,110.000000,,2013-09-02 18:02:00,
2013-09-02 14:13:00,72.0,70.0,-100.00,SSE,165,7.0,11.0,95,0.00,,,0.54,110.000000,,2013-09-02 18:13:00,
2013-09-02 14:22:00,72.0,70.0,-100.00,SSE,165,7.0,11.0,95,0.00,,,0.54,110.000000,,2013-09-02 18:22:00,
2013-09-02 14:52:00,74.0,72.0,-100.00,WNW,303,1.0,13.0,94,0.03,,,0.57,163.000000,,2013-09-02 18:52:00,
2013-09-02 15:02:00,74.0,72.0,-100.00,WNW,303,1.0,13.0,94,0.03,,,0.57,163.000000,,2013-09-02 19:02:00,
2013-09-02 15:12:00,74.0,72.0,-100.00,WNW,303,1.0,13.0,94,0.03,,,0.57,163.000000,,2013-09-02 19:12:00,
2013-09-02 15:22:00,74.0,72.0,-100.00,WNW,303,1.0,13.0,94,0.03,,,0.57,163.000000,,2013-09-02 19:22:00,
2013-09-02 15:52:00,75.0,71.0,-100.00,SW,230,0.0,5.0,88,0.00,,,0.57,184.000000,,2013-09-02 19:52:00,
2013-09-02 16:02:00,75.0,71.0,-100.00,SW,230,0.0,5.0,88,0.00,,,0.57,184.000000,,2013-09-02 20:02:00,
2013-09-02 16:12:00,75.0,71.0,-100.00,SW,230,0.0,5.0,88,0.00,,,0.57,184.000000,,2013-09-02 20:12:00,
2013-09-02 16:22:00,75.0,71.0,-100.00,SW,230,0.0,5.0,88,0.00,,,0.57,184.000000,,2013-09-02 20:22:00,
2013-09-02 16:52:00,74.0,70.0,-100.00,South,185,5.0,8.0,87,0.00,,,0.57,195.000000,,2013-09-02 20:52:00,
2013-09-02 17:02:00,74.0,70.0,-100.00,South,185,5.0,8.0,87,0.00,,,0.57,195.000000,,2013-09-02 21:02:00,
2013-09-02 17:12:00,74.0,70.0,-100.00,South,185,5.0,8.0,87,0.00,,,0.57,195.000000,,2013-09-02 21:12:00,
2013-09-02 17:23:00,74.0,70.0,-100.00,South,185,5.0,8.0,87,0.00,,,0.57,195.000000,,2013-09-02 21:23:00,
2013-09-02 17:55:00,71.0,70.0,-100.00,South,171,4.0,8.0,96,0.00,,,0.57,95.000000,,2013-09-02 21:55:00,
2013-09-02 18:04:00,71.0,70.0,-100.00,South,171,4.0,8.0,96,0.00,,,0.57,95.000000,,2013-09-02 22:04:00,
2013-09-02 18:13:00,71.0,70.0,-100.00,South,171,4.0,8.0,96,0.00,,,0.57,95.000000,,2013-09-02 22:13:00,
2013-09-02 18:24:00,71.0,70.0,-100.00,South,171,4.0,8.0,96,0.00,,,0.57,95.000000,,2013-09-02 22:24:00,
2013-09-02 18:54:00,71.0,70.0,-100.00,SSW,195,6.0,8.0,97,0.00,,,0.57,36.000000,,2013-09-02 22:54:00,
2013-09-02 19:03:00,71.0,70.0,-100.00,SSW,195,6.0,8.0,97,0.00,,,0.57,36.000000,,2013-09-02 23:03:00,
2013-09-02 19:12:00,71.0,70.0,-100.00,SSW,195,6.0,8.0,97,0.00,,,0.57,36.000000,,2013-09-02 23:12:00,
2013-09-02 19:22:00,71.0,70.0,-100.00,SSW,195,6.0,8.0,97,0.00,,,0.57,36.000000,,2013-09-02 23:22:00,
2013-09-02 19:53:00,71.0,70.0,-100.00,SSW,196,5.0,11.0,98,0.00,,,-99.99,13.000000,,2013-09-02 23:53:00,
2013-09-02 20:02:00,71.0,70.0,-100.00,SSW,196,5.0,11.0,98,0.00,,,-99.99,13.000000,,2013-09-03 00:02:00,
2013-09-02 20:12:00,71.0,70.0,-100.00,SSW,196,5.0,11.0,98,0.00,,,-99.99,13.000000,,2013-09-03 00:12:00,
2013-09-02 20:22:00,71.0,70.0,-100.00,SSW,196,5.0,11.0,98,0.00,,,-99.99,13.000000,,2013-09-03 00:22:00,
2013-09-02 20:52:00,70.0,69.0,-100.00,South,187,5.0,8.0,98,0.00,,,0.57,1.000000,,2013-09-03 00:52:00,
2013-09-02 21:02:00,70.0,69.0,-100.00,South,187,5.0,8.0,98,0.00,,,0.57,1.000000,,2013-09-03 01:02:00,
2013-09-02 21:11:00,70.0,69.0,-100.00,South,187,5.0,8.0,98,0.00,,,0.57,1.000000,,2013-09-03 01:11:00,
2013-09-02 21:22:00,70.0,69.0,-100.00,South,187,5.0,8.0,98,0.00,,,0.57,1.000000,,2013-09-03 01:22:00,
2013-09-02 21:52:00,71.0,70.0,-100.00,South,178,5.0,9.0,98,0.00,,,0.57,0.000000,,2013-09-03 01:52:00,
2013-09-02 22:02:00,71.0,70.0,-100.00,South,178,5.0,9.0,98,0.00,,,0.57,0.000000,,2013-09-03 02:02:00,
2013-09-02 22:12:00,71.0,70.0,-100.00,South,178,5.0,9.0,98,0.00,,,0.57,0.000000,,2013-09-03 02:12:00,
2013-09-02 22:21:00,71.0,70.0,-100.00,South,178,5.0,9.0,98,0.00,,,0.57,0.000000,,2013-09-03 02:21:00,
2013-09-02 22:52:00,71.0,70.0,-100.00,SSW,198,7.0,11.0,98,0.00,,,0.57,0.000000,,2013-09-03 02:52:00,
2013-09-02 23:02:00,71.0,70.0,-100.00,SSW,198,7.0,11.0,98,0.00,,,0.57,0.000000,,2013-09-03 03:02:00,
2013-09-02 23:11:00,71.0,70.0,-100.00,SSW,198,7.0,11.0,98,0.00,,,0.57,0.000000,,2013-09-03 03:11:00,
2013-09-02 23:23:00,71.0,70.0,-100.00,SSW,198,7.0,11.0,98,0.00,,,0.57,0.000000,,2013-09-03 03:23:00,
2013-09-02 23:25:00,71.0,70.0,-100.00,SW,228,4.0,8.0,98,0.00,,,0.57,0.000000,,2013-09-03 03:25:00,
2013-09-02 23:55:00,71.0,70.0,-100.00,SW,228,4.0,8.0,98,0.00,,,0.57,0.000000,,2013-09-03 03:55:00,